Location: Kitchener
(43.4500°N, 80.5000°W)
Time: 06:37:10
(UTC-04:00)

Daily predictions for brighter satellites

Satellite Brightness Start Highest point End
(mag) Time Altitude Azimuth Time Altitude Azimuth Time Altitude Azimuth
CZ-3B R/B 4.3 21:33:18 10° SSW 21:36:08 41° ESE 21:44:28 10° NE
Cosmos 2100 Rocket 4.1 21:32:06 10° N 21:38:25 70° E 21:44:45 10° SSE
ERBS 3.0 21:38:09 10° NW 21:41:27 46° NE 21:44:44 10° ESE
H-2A R/B 3.5 21:37:49 10° ESE 21:42:05 25° ENE 21:46:25 10° N
Cosmos 1076 Rocket 3.5 21:38:55 10° S 21:43:15 69° E 21:47:35 10° NNE
Cosmos 2173 Rocket 4.0 21:38:48 10° N 21:44:59 71° E 21:51:13 10° SSE
Lacrosse 5 1.9 21:41:30 10° NW 21:46:36 86° NE 21:51:40 10° SE
Cosmos 1818 4.5 21:41:38 10° NW 21:46:48 46° WSW 21:51:56 10° S
SPOT 5 3.8 21:45:30 10° SE 21:49:58 36° ENE 21:54:40 10° N
Cosmos 2061 Rocket 4.1 21:45:21 10° N 21:51:46 74° E 21:58:11 10° SSE
NOAA 11 4.3 21:48:24 10° SSE 21:53:44 64° ENE 21:59:07 10° N
Abrixas rocket 2.2 21:50:45 10° WNW 21:54:00 81° NNE 21:57:15 10° ESE
Cosmos 1408 Rocket 3.6 21:51:39 10° S 21:55:51 58° E 22:00:07 10° NNE
YAOGAN 6 3.0 21:53:41 10° S 21:57:18 64° WSW 22:00:59 10° NNW
Cosmos 2221 3.4 21:54:20 10° NNW 21:58:36 51° W 22:02:50 10° S
MetOp-B 4.3 21:53:51 10° SSE 21:59:06 61° ENE 22:04:24 10° N
BREEZE-M DEB (TANK) 3.2 21:58:18 10° W 22:00:14 36° N 22:04:01 10° ENE
Cosmos 2227 4.2 21:56:40 10° SSW 22:02:23 79° ESE 22:08:06 10° NNE
Envisat 4.4 21:57:44 10° SSW 22:02:25 37° W 22:07:08 10° NNW
Cosmos 1626 4.1 22:03:26 11° ESE 22:05:10 14° E 22:07:04 10° NE
Meteor 1-29 3.7 22:01:57 10° N 22:05:20 57° WNW 22:08:44 10° SSW
Cosmos 1814 Rocket 4.2 22:01:22 10° NNW 22:06:41 63° ENE 22:11:33 12° SSE
Cosmos 1726 2.2 22:03:42 10° N 22:07:22 61° E 22:10:46 11° SSE
Cosmos 1725 Rocket 4.2 22:04:09 10° N 22:10:18 57° ENE 22:16:09 11° SSE
Cosmos 1763 Rocket 3.7 22:07:09 10° NNW 22:12:11 55° ENE 22:16:28 14° SE
Cosmos 841 Rocket 4.1 22:07:19 10° N 22:12:20 44° ENE 22:16:35 14° SE
Terra 3.4 22:11:39 11° ESE 22:15:07 22° ENE 22:18:44 10° NNE
Cosmos 332 Rocket 3.8 22:10:13 10° NNW 22:15:09 88° ENE 22:19:41 12° SSE
Cosmos 1802 Rocket 4.1 22:09:17 10° N 22:15:26 79° W 22:21:35 10° S
Tiangong 1 0.7 22:13:38 10° W 22:16:26 64° S 22:18:28 16° ESE
Cosmos 1500 Rocket 4.3 22:13:36 12° SSE 22:17:16 35° E 22:21:20 10° NNE
Cosmos 2263 Rocket 2.7 22:12:40 10° S 22:17:43 37° ESE 22:22:48 10° NE
ATLAS 5 CENTAUR R/B 3.8 22:13:36 10° WSW 22:17:55 33° NW 22:22:38 10° NNE
Cosmos 1486 Rocket 4.3 22:12:59 10° S 22:18:03 49° ESE 22:23:09 10° NNE
Helios 1B rocket 4.0 22:14:45 10° N 22:18:36 37° WNW 22:22:25 10° SW
Abrixas 2.6 22:19:07 10° SW 22:21:39 39° SSE 22:24:13 10° ENE
Cosmos 1300 2.6 22:19:20 10° N 22:23:10 74° E 22:26:18 15° SSE
USA 234 3.5 22:27:55 10° ENE 22:34:10 46° SE 22:40:23 10° SSW
Cosmos 1766 Rocket 4.5 22:31:05 10° SSW 22:35:15 48° WNW 22:39:30 10° N
Cosmos 2016 Rocket 4.3 22:30:15 10° NNW 22:36:26 66° W 22:42:30 10° S
Cosmos 1328 Rocket 3.5 22:32:12 10° N 22:36:32 82° W 22:40:05 15° S
Cosmos 1151 Rocket 3.3 22:32:22 10° N 22:36:42 55° E 22:39:31 20° SSE
SPOT 1/Viking Rocket 3.6 22:33:04 16° SSE 22:37:07 72° ENE 22:42:17 10° N
SL-14 R/B 3.3 22:36:24 10° S 22:40:22 79° W 22:44:18 10° N
Cosmos 1515 Rocket 3.5 22:40:36 10° N 22:44:58 88° E 22:48:00 19° S
CZ-4C R/B 3.4 22:46:16 19° ESE 22:47:16 20° ESE 22:51:16 10° ENE
ERS-1 Rocket 4.2 22:42:38 10° SSW 22:47:18 38° W 22:52:00 10° NNW
H-2A R/B 3.1 22:47:34 20° ESE 22:49:45 32° ENE 22:53:30 10° N
EO 1 Delta rocket 3.8 22:47:12 17° S 22:50:48 81° W 22:55:32 10° NNW
Cosmos 1844 Rocket 4.3 22:50:06 14° ESE 22:50:52 15° E 22:53:48 10° ENE
Cosmos 1743 Rocket 3.7 22:46:39 10° SSW 22:50:58 73° W 22:55:17 10° N
USA 245 4.0 22:48:40 16° S 22:51:22 53° W 22:55:47 10° NNW
RESURS DK-1 4.0 22:47:54 10° NW 22:51:27 27° WSW 22:54:38 12° SSW
ARGOS 3.6 22:46:39 13° S 22:51:29 59° W 22:56:50 10° NNW
Cosmos 2058 2.9 22:50:47 21° S 22:53:28 64° E 22:57:40 10° NNE
Cosmos 1328 4.4 22:49:57 10° SSW 22:53:55 56° W 22:57:55 10° N
Cosmos 1455 3.0 22:52:17 10° N 22:55:54 38° ENE 22:57:20 27° ESE
Meteor 2-12 Rocket 4.4 22:53:32 10° N 22:59:36 73° E 23:03:36 22° SSE
Cosmos 2233 Rocket 3.9 22:53:31 10° N 22:59:45 84° E 23:04:08 20° S
Nimbus 7 Rocket 4.5 22:56:30 10° NNE 23:02:34 87° WNW 23:08:31 10° SSW
Cosmos 2228 Rocket 4.0 22:59:17 10° NNW 23:03:41 47° W 23:07:15 15° SSW
Cosmos 371 Rocket 4.3 22:59:26 10° NW 23:03:55 39° WSW 23:07:23 15° SSW
Cosmos 1943 3.5 22:58:24 10° NNW 23:03:59 63° WSW 23:07:41 22° S
Cosmos 1503 Rocket 3.9 23:00:28 16° S 23:04:31 65° ESE 23:09:40 10° NNE
Cosmos 540 Rocket 3.6 23:00:39 10° NNW 23:05:47 61° ENE 23:08:29 27° SE
CZ-4B R/B 4.5 23:03:27 10° NE 23:08:05 30° E 23:09:44 25° SE
SME Rocket 4.4 23:11:22 21° ESE 23:13:10 30° ENE 23:17:29 10° N
ERBS 4.3 23:15:30 10° W 23:17:50 18° SW 23:18:29 17° SW
H-2A R/B 2.8 23:17:23 18° SSW 23:21:09 49° W 23:26:26 10° NNW
CZ-2C R/B 4.4 23:18:42 10° ENE 23:21:24 14° E 23:22:08 14° E
Cosmos 1869 3.9 23:20:56 10° N 23:24:41 41° ENE 23:25:35 35° ESE
Lacrosse 5 3.8 23:25:48 10° W 23:28:56 17° WSW 23:31:05 13° SSW
Sich 1 3.5 23:28:52 37° SE 23:29:45 42° E 23:33:47 10° NNE
Abrixas rocket 4.2 23:28:08 10° W 23:29:56 17° SW 23:29:56 17° SW
Cosmos 2151 4.1 23:27:50 14° SW 23:31:16 42° WNW 23:35:23 10° N
Cosmos 1400 Rocket 4.2 23:38:32 24° E 23:38:39 24° E 23:42:00 10° NE
Cosmos 1626 3.3 23:38:04 20° SW 23:40:08 38° WNW 23:43:40 10° N
SL-19 R/B 4.2 23:35:57 10° NNE 23:41:21 89° ESE 23:44:39 26° SSW
CZ-4C R/B 3.9 23:40:17 39° ESE 23:41:30 53° ENE 23:45:50 10° N
Cosmos 1703 4.4 23:39:14 20° SW 23:41:35 41° WNW 23:45:24 10° N
Cosmos 1707 Rocket 3.5 23:42:31 10° N 23:47:02 86° E 23:48:18 47° SSE
deb Chang Zheng 4 3.5 23:43:12 10° NNE 23:47:36 85° WNW 23:49:17 38° SSW
Cosmos 2278 Rocket 3.7 23:51:08 19° ESE 23:51:20 19° E 23:55:11 10° ENE
Tiangong 1 3.7 23:49:33 10° WSW 23:49:35 10° WSW 23:49:35 10° WSW
Terra 2.6 23:50:32 28° SSW 23:52:34 44° W 23:57:08 10° NNW
ALOS 2 4.2 23:52:39 20° E 23:53:56 23° ENE 23:57:25 10° NNE
Abrixas 3.7 23:53:53 10° W 23:56:27 37° NNW 23:57:27 26° NNE
